Regional Weather Roundup
Issued by NWS Sioux Falls, SD

Home | Current Version | Previous Version | Graphics & Text | Print | Product List | Glossary On
Versions: 1 2 3 4 5 6 7 8 9 10 11 12 13 14 15 16 17 18 19 20 21 22 23 24 25 26 27 28 29 30 31 32 33 34 35 36 37 38 39 40 41 42 43 44 45 46 47 48 49 50
000
ASUS43 KFSD 260510
RWRFSD

WEATHER ROUNDUP FOR SE SOUTH DAKOTA/SW MINNESOTA/NW IOWA
NATIONAL WEATHER SERVICE SIOUX FALLS SD
1200 AM CDT SUN MAR 26 2017

NOTE: "FAIR" INDICATES FEW OR NO CLOUDS BELOW 12,000 FEET WITH NO
SIGNIFICANT WEATHER AND OR OBSTRUCTIONS TO VISIBILITY.


SDZ038>040-050-052>070-260600-
SOUTHEAST SOUTH DAKOTA

CITY           SKY/WX    TMP DP  RH WIND       PRES   REMARKS
BROOKINGS      CLOUDY    37  36  96 E9        29.96  FOG
CHAMBERLAIN    CLOUDY    42  40  92 E13G18    29.92F
HURON          CLOUDY    40  38  93 SE12      29.96F
MADISON        CLOUDY    36  36 100 E9        29.96S FOG
MITCHELL       CLOUDY    40  39  97 SE7       29.97F FOG
SIOUX FALLS    CLOUDY    39  37  92 E8        29.96F
WINNER         CLOUDY    41  38  89 SE17G26   29.90R
YANKTON        CLOUDY    37  36  93 E6        29.96F
$$

MNZ071-072-080-081-089-090-097-098-260600-
SOUTHWEST MINNESOTA

CITY           SKY/WX    TMP DP  RH WIND       PRES   REMARKS
FAIRMONT       LGT RAIN  37  36  96 NE7       29.98F FOG
JACKSON        LGT RAIN  36  36 100 E10       29.96F
LUVERNE        CLOUDY    36  34  93 E7        29.97F
MARSHALL       CLOUDY    37  36  96 E6        29.99F
MONTEVIDEO     CLOUDY    37  37 100 SE7       30.02F
PIPESTONE      CLOUDY    37  34  87 E10       29.95F FOG
REDWOOD FALLS  CLOUDY    39  34  82 NE3       30.00F
TRACY          CLOUDY    38  37  97 E6        29.98F FOG
WINDOM         CLOUDY    37  36  93 NE10      29.96F FOG
WORTHINGTON    CLOUDY    36  35  96 E10       29.96F FOG
$$

IAZ001>003-012>014-020>022-031-032-NEZ013-014-SDZ071-260600-
NORTHWEST IOWA

CITY           SKY/WX    TMP DP  RH WIND       PRES   REMARKS
CHEROKEE       CLOUDY    38  38 100 NE6       29.94F
ESTHERVILLE    CLOUDY    36  36 100 NE8       29.96F FOG
LE MARS        CLOUDY    39  37  93 NE9       29.96S
ORANGE CITY    CLOUDY    37  37 100 E6        29.95S FOG
SHELDON        CLOUDY    37  37 100 E8        29.94S FOG
SIOUX CITY     CLOUDY    39  38  96 E7        29.95F
SPENCER        CLOUDY    37  37 100 NE10      29.95F FOG
STORM LAKE     FOG       37  37 100 NE10      29.94F VSB 1/2
$$

ABBREVIATIONS USED IN REMARKS
   TC - TEMPERATURE IN CELSIUS
  WCI - WIND CHILL INDEX
   HX - HEAT INDEX
  VSB - VISIBILITY





USA.gov is the U.S. government's official web portal to all federal, state and local government web resources and services.